Bishopton, United Kingdom

12:03 AM GMT on January 23, 2017 (GMT +0000)
Glasgow

Weather History for EGPF - October, 2011

Change the Weather History Date:

Saturday, October 29, 2011

  Actual Average Record
Temperature  
Mean Temperature 54 °F -  
Max Temperature 57 °F 47 °F 60 °F (2005)
Min Temperature 51 °F 37 °F 21 °F (1997)
Degree Days  
Heating Degree Days 11    
Growing Degree Days 4 (Base 50)    
Moisture  
Dew Point 51 °F    
Average Humidity 87    
Maximum Humidity 94    
Minimum Humidity 82    
Precipitation  
Precipitation 0.00 in - - ()
Sea Level Pressure  
Sea Level Pressure 29.75 in    
Wind  
Wind Speed 11 mph ()    
Max Wind Speed 24 mph    
Max Gust Speed 32 mph    
Visibility 5.2 miles    
Events Rain    
Averages and records for this station are not official NWS values.
T = Trace of Precipitation, MM = Missing Value Source: Averaged Metar Reports

Daily Weather History Graph

Daily Weather History Graph

Search for Another Location

Airport or City:

Trip Planner

Search our weather history database for the weather conditions in past years. The results will help you decide how hot, cold, wet, or windy it might be!

Date:

Astronomy

Oct. 29, 2011 Rise Set
Actual Time 8:17 AM BST 5:44 PM BST
Civil Twilight 7:37 AM BST 6:23 PM BST
Nautical Twilight 6:54 AM BST 7:07 PM BST
Astronomical Twilight 6:11 AM BST 7:50 PM BST
Moon 12:02 PM BST (10/29) 7:14 PM BST (10/29)
Length of Visible Light 10h 46m
Length of Day
9h 27m
Waxing Crescent, 10% of the Moon is Illuminated
Oct 29
Waxing Crescent
Nov 2
First Quarter
Nov 10
Full
Nov 18
Last Quarter
Nov 25
New

Hourly Weather History & Observations

Time (BST) Temp. Dew Point Humidity Pressure Visibility Wind Dir Wind Speed Gust Speed Precip Events Conditions
12:20 AM 53.6 °F 48.2 °F 82% 29.95 in 6.2 mi South 10.4 mph - N/A   Mostly Cloudy
12:50 AM 53.6 °F 48.2 °F 82% 29.95 in 6.2 mi South 6.9 mph - N/A   Overcast
1:20 AM 53.6 °F 48.2 °F 82% 29.95 in 6.2 mi South 13.8 mph - N/A   Overcast
1:50 AM 53.6 °F 48.2 °F 82% 29.95 in 6.2 mi South 13.8 mph - N/A   Overcast
2:20 AM 53.6 °F 50.0 °F 88% 29.95 in 3.1 mi SSW 8.1 mph - N/A Rain Light Rain
2:50 AM 53.6 °F 50.0 °F 88% 29.92 in 5.0 mi South 8.1 mph - N/A Rain Light Rain
3:20 AM 53.6 °F 50.0 °F 88% 29.92 in 5.0 mi South 6.9 mph - N/A Rain Rain
3:50 AM 53.6 °F 50.0 °F 88% 29.89 in 6.2 mi South 12.7 mph - N/A Rain Light Rain
4:20 AM 53.6 °F 50.0 °F 88% 29.89 in 3.7 mi South 9.2 mph - N/A Rain Light Rain
4:50 AM 53.6 °F 50.0 °F 88% 29.89 in - South 9.2 mph - N/A   Drizzle
5:20 AM 51.8 °F 50.0 °F 94% 29.86 in - South 9.2 mph - N/A Rain Light Rain
5:50 AM 51.8 °F 50.0 °F 94% 29.86 in 3.1 mi SSE 9.2 mph - N/A Rain Rain
6:20 AM 53.6 °F 50.0 °F 88% 29.83 in 4.3 mi South 9.2 mph - N/A Rain Light Rain
6:50 AM 51.8 °F 50.0 °F 94% 29.83 in 5.0 mi SSE 8.1 mph - N/A Rain Light Rain
7:20 AM 51.8 °F 50.0 °F 94% 29.83 in 5.0 mi SSE 8.1 mph - N/A Rain Light Rain
7:50 AM 51.8 °F 50.0 °F 94% 29.80 in 4.3 mi SSE 9.2 mph - N/A Rain Light Rain
8:20 AM 51.8 °F 50.0 °F 94% 29.80 in 3.7 mi SSE 9.2 mph - N/A Rain Light Rain
8:50 AM 51.8 °F 50.0 °F 94% 29.80 in 3.1 mi SSE 8.1 mph - N/A Rain Light Rain
9:20 AM 53.6 °F 50.0 °F 88% 29.80 in 3.1 mi South 10.4 mph - N/A Rain Light Rain
9:50 AM 53.6 °F 50.0 °F 88% 29.77 in 6.2 mi SSE 10.4 mph - N/A   Overcast
10:20 AM 53.6 °F 50.0 °F 88% 29.77 in 6.2 mi South 10.4 mph - N/A   Overcast
10:50 AM 53.6 °F 50.0 °F 88% 29.77 in 3.7 mi SSE 10.4 mph - N/A   Light Drizzle
11:20 AM 53.6 °F 50.0 °F 88% 29.77 in 3.1 mi SSE 9.2 mph - N/A   Light Drizzle
11:50 AM 53.6 °F 51.8 °F 94% 29.74 in - SE 10.4 mph - N/A Rain Light Rain
12:20 PM 55.4 °F 51.8 °F 88% 29.74 in 6.2 mi SSE 11.5 mph - N/A   Overcast
12:50 PM 55.4 °F 51.8 °F 88% 29.71 in 5.6 mi South 11.5 mph - N/A Rain Light Rain
1:20 PM 57.2 °F 53.6 °F 88% 29.68 in 6.2 mi South 10.4 mph - N/A   Overcast
1:50 PM 57.2 °F 53.6 °F 88% 29.68 in 5.6 mi South 16.1 mph - N/A Rain Light Rain
2:20 PM 57.2 °F 53.6 °F 88% 29.65 in 5.6 mi South 18.4 mph - N/A Rain Light Rain
2:50 PM 57.2 °F 53.6 °F 88% 29.62 in 3.7 mi South 20.7 mph 32.2 mph N/A Rain Light Rain
3:20 PM 57.2 °F 53.6 °F 88% 29.62 in 3.7 mi South 18.4 mph 31.1 mph N/A Rain Rain
3:50 PM 57.2 °F 53.6 °F 88% 29.59 in 3.7 mi South 20.7 mph - N/A Rain Rain
4:20 PM 57.2 °F 53.6 °F 88% 29.59 in 6.2 mi SSW 24.2 mph - N/A Rain Light Rain
4:50 PM 57.2 °F 51.8 °F 82% 29.62 in 6.2 mi SW 23.0 mph - N/A   Mostly Cloudy
5:20 PM 57.2 °F 51.8 °F 82% 29.62 in 6.2 mi SW 21.9 mph - N/A   Mostly Cloudy
5:50 PM 55.4 °F 51.8 °F 88% 29.65 in 6.2 mi West 12.7 mph - N/A   Mostly Cloudy
6:20 PM 53.6 °F 50.0 °F 88% 29.65 in 4.3 mi West 10.4 mph - N/A Rain Light Rain
6:50 PM 55.4 °F 51.8 °F 88% 29.65 in 6.2 mi SW 13.8 mph - N/A   Scattered Clouds
7:20 PM 55.4 °F 50.0 °F 82% 29.65 in 6.2 mi SW 16.1 mph - N/A   Mostly Cloudy
7:50 PM 55.4 °F 50.0 °F 82% 29.65 in 6.2 mi SW 16.1 mph - N/A   Mostly Cloudy
8:20 PM 55.4 °F 50.0 °F 82% 29.65 in 6.2 mi SSW 15.0 mph - N/A   Mostly Cloudy
8:50 PM 55.4 °F 50.0 °F 82% 29.65 in 6.2 mi SW 12.7 mph - N/A   Mostly Cloudy
9:20 PM 55.4 °F 50.0 °F 82% 29.65 in 6.2 mi SW 15.0 mph - N/A   Mostly Cloudy
9:50 PM 55.4 °F 50.0 °F 82% 29.65 in 6.2 mi SW 19.6 mph - N/A   Mostly Cloudy
10:20 PM 55.4 °F 50.0 °F 82% 29.68 in 6.2 mi SW 19.6 mph - N/A   Mostly Cloudy
10:50 PM 55.4 °F 50.0 °F 82% 29.68 in 6.2 mi SW 17.3 mph - N/A   Mostly Cloudy
11:20 PM 55.4 °F 50.0 °F 82% 29.68 in 6.2 mi SW 19.6 mph - N/A   Mostly Cloudy
11:50 PM 55.4 °F 50.0 °F 82% 29.68 in 6.2 mi SW 17.3 mph - N/A   Mostly Cloudy